Weather History for PHLI - August, 2013

Change the Weather History Date:

Wednesday, August 28, 2013

  Actual Average Record
Temperature  
Mean Temperature 79 °F 80 °F  
Max Temperature 89 °F 85 °F 89 °F (2013)
Min Temperature 68 °F 75 °F 68 °F (1964)
Degree Days  
Heating Degree Days 0 0  
Month to date heating degree days 0 0  
Since 1 June heating degree days 0 0  
Since 1 July heating degree days 0 0  
Cooling Degree Days 14 15  
Month to date cooling degree days 404 419  
Year to date cooling degree days 2249 2491  
Since 1 June cooling degree days 1167 1252  
Growing Degree Days 28 (Base 50)    
Moisture  
Dew Point 68 °F    
Average Humidity 69    
Maximum Humidity 84    
Minimum Humidity 53    
Precipitation  
Precipitation 0.00 in 0.06 in 1.36 in (2015)
Month to date precipitation 0.66 1.95  
Year to date precipitation 17.12 21.27  
Snow  
Snow 0.00 in - - ()
Month to date snowfall 0.0  
Since 1 June snowfall 0.0  
Since 1 July snowfall 0.0  
Snow Depth 0.00 in    
Sea Level Pressure  
Sea Level Pressure 30.00 in    
Wind  
Wind Speed 10 mph (NNE)    
Max Wind Speed 22 mph    
Max Gust Speed 25 mph    
Visibility 10 miles    
Events Rain    
T = Trace of Precipitation, MM = Missing Value Source: NWS Daily Summary

Daily Weather History Graph

Daily Weather History Graph

Search for Another Location

Airport or City:

Trip Planner

Search our weather history database for the weather conditions in past years. The results will help you decide how hot, cold, wet, or windy it might be!

Date:

Astronomy

Aug. 28, 2013 Rise Set
Actual Time 6:19 AM HST 6:57 PM HST
Civil Twilight 5:56 AM HST 7:19 PM HST
Nautical Twilight 5:29 AM HST 7:46 PM HST
Astronomical Twilight 5:02 AM HST 8:13 PM HST
Moon No Moon Rise 1:24 PM HST (8/28)
Length of Visible Light 13h 23m
Length of Day
12h 37m
Last Quarter, 45% of the Moon is Illuminated
Aug 28
Last Quarter
Sep 5
New
Sep 12
First Quarter
Sep 19
Full
Sep 26
Last Quarter

Hourly Weather History & Observations

Time (HST) Temp. Heat Index Dew Point Humidity Pressure Visibility Wind Dir Wind Speed Gust Speed Precip Events Conditions
12:53 AM 77.0 °F - 64.9 °F 66% 30.05 in 10.0 mi NE 11.5 mph - N/A   Partly Cloudy
1:53 AM 77.0 °F - 66.0 °F 69% 30.04 in 10.0 mi NE 10.4 mph - N/A   Scattered Clouds
2:53 AM 75.0 °F - 64.0 °F 69% 30.04 in 10.0 mi NW 4.6 mph - N/A   Partly Cloudy
3:53 AM 71.1 °F - 64.0 °F 78% 30.02 in 10.0 mi WNW 4.6 mph - N/A   Partly Cloudy
4:53 AM 70.0 °F - 64.0 °F 81% 30.02 in 10.0 mi WNW 6.9 mph - N/A   Clear
5:53 AM 68.0 °F - 63.0 °F 84% 30.03 in 10.0 mi WNW 6.9 mph - N/A   Clear
6:53 AM 70.0 °F - 63.0 °F 78% 30.04 in 10.0 mi WNW 6.9 mph - N/A   Clear
7:53 AM 75.9 °F - 64.0 °F 67% 30.04 in 10.0 mi WNW 4.6 mph - N/A   Clear
8:53 AM 81.0 °F 82.5 °F 64.0 °F 56% 30.04 in 10.0 mi NNE 8.1 mph - N/A   Clear
9:53 AM 82.0 °F 83.8 °F 64.9 °F 56% 30.03 in 10.0 mi ENE 9.2 mph - N/A   Clear
10:53 AM 82.9 °F 85.4 °F 66.9 °F 58% 30.02 in 10.0 mi NE 11.5 mph - N/A   Clear
11:53 AM 82.9 °F 85.8 °F 68.0 °F 60% 29.99 in 10.0 mi NE 13.8 mph - N/A   Clear
12:53 PM 86.0 °F 90.7 °F 70.0 °F 59% 29.97 in 10.0 mi NE 16.1 mph - N/A   Partly Cloudy
1:53 PM 87.1 °F 90.6 °F 68.0 °F 53% 29.97 in 10.0 mi NE 18.4 mph 25.3 mph N/A   Mostly Cloudy
2:53 PM 84.9 °F 89.4 °F 70.0 °F 61% 29.96 in 10.0 mi NNE 18.4 mph - N/A   Mostly Cloudy
3:53 PM 82.9 °F 87.5 °F 71.1 °F 67% 29.95 in 10.0 mi NNE 17.3 mph - N/A   Overcast
4:53 PM 81.0 °F 84.4 °F 70.0 °F 69% 29.94 in 10.0 mi NNE 16.1 mph - N/A   Overcast
5:53 PM 82.0 °F 85.5 °F 69.1 °F 65% 29.94 in 10.0 mi NNE 13.8 mph - N/A   Scattered Clouds
6:53 PM 79.0 °F - 70.0 °F 74% 29.95 in 10.0 mi NNE 12.7 mph - N/A   Scattered Clouds
7:53 PM 78.1 °F - 71.1 °F 79% 29.97 in 10.0 mi NNE 11.5 mph - 0.00 in   Mostly Cloudy
8:53 PM 78.1 °F - 71.1 °F 79% 29.98 in 10.0 mi NNE 11.5 mph - N/A   Clear
9:31 PM 75.2 °F - 71.6 °F 89% 29.99 in 7.0 mi ENE 11.5 mph 18.4 mph 0.01 in Rain Light Rain
9:44 PM 75.2 °F - 71.6 °F 89% 29.99 in 10.0 mi NNE 12.7 mph - 0.01 in   Overcast
9:53 PM 75.9 °F - 72.0 °F 87% 29.98 in 10.0 mi NNE 10.4 mph - 0.01 in   Overcast
10:53 PM 77.0 °F - 71.1 °F 82% 29.98 in 10.0 mi NE 12.7 mph - N/A   Partly Cloudy
11:53 PM 77.0 °F - 70.0 °F 79% 29.97 in 10.0 mi NE 12.7 mph - N/A   Partly Cloudy